Location: Helion Bumpstead
(52.0500°N, 0.4000°E)
Time: 08:33:41
(UTC+00:00)

Cosmos 1741 Rocket - Pass Details

Date: 15 November 2025
Orbit: 756 x 778 km, 74.0° (Epoch: 14 December)

Event Time Altitude Azimuth Distance (km) Brightness Sun altitude
Exits shadow 05:47:27 - 331° (NNW) 2,560 6.3 -13.9°
Reaches altitude 10° 05:48:01 10° 330° (NNW) 2,343 6.1 -13.8°
Maximum altitude 05:53:17 66° 250° (WSW) 854 4.0 -13.0°
Drops below altitude 10° 05:58:31 10° 169° (S) 2,323 6.8 -12.2°
Sets 06:00:53 0° 167° (SSE) 3,245 7.7 -11.9°
